SCP
0 0 0 0 0 0 0 0 0 0 0 0 0 0 0 0 0 0 1 1 0 0 0 0 0 0 0 0 0 0 0 0 0 0 0 0 0 0 0 0 0 0 -0
0 0 0 0 0 0 0 0 0 0 0 0 0 0 0 0 0 0 1 1 1 0 0 0 0 0 0 0 0 0 0 -0 0 0 0 0 0 0 0 0 0 -0 0
0 0 0 0 0 0 0 0 0 0 0 0 0 0 0 0 0 1 1 1 1 0 0 0 0 0 0 0 0 0 0 0 0 0 0 0 0 0 0 0 0 0 0
0 0 0 0 0 0 0 0 -0 0 0 0 0 0 0 0 0 1 0 0 0 0 0 0 0 0 0 0 0 0 0 0 0 0 0 0 0 0 0 0 -0 -0 -0
0 0 0 0 0 0 0 0 0 0 0 0 0 0 0 0 0 1 0 0 0 0 0 0 0 0 0 0 0 0 0 0 -0 0 0 0 0 0 0 0 -0 -0 -0
0 0 0 0 0 0 0 0 0 0 0 0 0 0 0 0 0 0 0 0 0 0 0 0 0 0 0 0 0 0 0 0 0 0 0 0 0 0 0 -0 -0 -0 -0
0 -0 0 0 0 0 -0 0 0 0 0 0 0 0 0 0 0 0 0 0 0 0 0 0 0 0 0 0 0 -0 0 0 0 0 0 0 0 0 0 -0 -0 -0 0
0 -0 -0 0 -0 -0 -0 0 0 0 0 0 0 0 0 0 0 0 0 0 0 0 0 0 0 0 0 0 0 -0 0 0 -0 -0 -0 0 0 0 0 0 -0 -0 0
0 -0 -0 0 -0 -0 -0 0 0 0 0 0 0 0 0 0 0 0 0 0 0 0 0 0 0 0 0 0 0 0 0 0 -0 0 0 0 0 -0 0 0 0 0 0
0 -0 0 0 0 -0 -0 0 0 0 0 0 0 0 0 0 0 0 0 0 0 0 -0 0 0 0 0 0 0 0 0 0 0 -0 -0 -0 -0 -0 0 0 0 0 -0
-0 0 -0 0 0 -0 0 0 0 0 0 0 0 0 0 0 0 0 0 0 0 0 -0 0 0 0 0 0 0 0 0 0 0 0 0 -0 0 0 0 0 0 0 -0
-0 0 0 -0 0 0 0 0 0 0 0 0 0 0 0 0 0 0 0 0 0 0 -0 0 0 0 0 0 0 0 0 0 0 0 0 0 0 0 0 0 0 -0 -0
0 0 0 0 0 0 0 0 0 0 0 0 0 0 0 0 0 0 0 0 0 0 0 0 0 0 0 0 0 0 0 0 0 0 0 0 0 0 0 0 -0 -0 -0
-0 0 0 0 0 0 0 0 0 0 0 0 0 0 0 0 0 0 0 0 0 0 0 0 0 0 0 0 0 0 0 0 0 0 0 0 0 0 0 0 0 0 0
-0 0 0 0 0 0 0 0 0 0 0 0 0 0 0 0 0 0 0 0 0 0 0 0 0 0 0 0 0 0 0 -0 -0 0 0 0 0 0 0 0 0 0 0
0 -0 0 0 0 0 0 0 0 0 0 0 0 0 0 0 0 0 0 0 0 0 0 0 0 0 0 0 0 0 -0 -0 0 -0 0 0 0 0 0 0 0 0 0
0 0 0 0 0 0 0 0 0 0 0 0 0 0 0 0 0 0 0 0 0 0 0 0 0 0 0 0 0 0 0 0 -0 -0 0 0 0 0 0 0 0 0 0
0 0 0 0 0 0 0 0 0 0 0 0 0 0 0 0 0 0 0 0 0 0 0 0 0 0 0 0 0 0 0 -0 0 0 0 0 0 0 0 0 0 0 0
0 0 0 0 0 0 0 0 0 0 0 0 0 0 0 0 0 0 0 0 0 0 0 0 0 0 0 0 0 0 0 0 0 0 0 0 0 0 0 0 0 0 0
0 0 0 0 0 0 0 0 0 0 0 0 0 0 0 0 0 0 0 0 0 0 0 0 0 0 0 0 0 0 0 0 0 0 0 0 0 0 0 0 0 0 0
0 -0 0 0 0 0 0 0 0 0 0 0 0 0 0 0 0 0 0 0 0 0 0 0 0 0 0 0 0 0 0 0 -0 0 0 0 0 0 0 0 0 0 0
0 0 0 0 0 -0 -0 -0 0 0 0 0 0 0 0 -0 0 0 0 0 0 0 0 0 0 0 0 0 0 0 -0 -0 0 0 0 0 0 0 0 0 0 0 0
0 0 0 0 0 0 0 0 0 0 0 0 0 0 -0 0 0 0 0 0 0 0 0 0 0 0 0 0 0 -0 0 0 0 0 0 0 0 0 0 0 0 0 0
0 0 0 0 0 0 0 0 0 0 0 0 0 0 0 -0 0 0 0 0 0 0 0 0 0 0 0 0 0 0 0 0 0 0 0 0 0 0 0 0 0 0 0
0 0 0 0 0 -0 0 0 0 0 0 0 -0 0 0 0 0 0 0 0 0 0 0 0 0 -0 0 0 0 0 0 0 0 0 0 0 0 0 0 0 0 0 0
0 0 0 0 0 0 0 0 0 0 -0 -0 -0 -0 0 0 0 0 0 -0 0 -0 0 -0 0 -0 0 0 0 0 0 0 0 0 0 0 0 0 0 0 0 0 0
Wind_Speed_500mb
30 27 29 24 26 27 29 29 31 38 43 35 33 37 34 30 38 36 34 36 34 43 46 40 48 59 64 61 70 64 57 50 48 43 39 37 34 29 25 18 14 11 8
36 31 28 24 25 25 29 29 29 39 41 35 34 40 33 27 41 37 34 38 35 46 49 41 45 49 54 69 67 63 57 50 47 43 39 36 31 25 20 15 12 7 7
31 29 28 26 24 24 29 33 27 38 38 33 40 40 31 31 36 35 35 38 36 42 47 43 42 51 60 66 68 61 58 52 46 44 40 35 28 22 18 14 8 9 13
35 33 27 25 22 24 29 36 30 37 45 37 45 40 28 41 32 35 41 41 37 44 44 52 44 49 59 67 66 64 55 53 48 44 36 32 25 20 15 9 9 14 16
35 35 30 20 19 17 27 35 33 34 42 40 39 30 38 39 38 39 43 43 43 44 43 41 45 53 62 74 78 63 57 48 46 41 34 28 22 15 9 8 15 16 16
26 28 23 20 18 17 30 37 33 34 34 36 35 40 40 39 44 44 45 49 45 43 43 44 45 52 64 82 74 64 54 49 45 39 32 26 18 12 8 13 15 15 15
23 25 18 17 22 23 31 35 36 36 35 31 35 35 36 39 39 39 46 51 46 43 45 51 51 51 72 63 71 64 53 46 40 36 29 22 13 7 10 14 15 14 11
16 16 11 16 24 28 33 37 39 41 39 37 51 44 31 27 31 33 45 44 51 49 44 53 59 70 72 67 65 62 53 48 42 37 28 18 9 7 12 14 15 12 7
12 12 11 14 23 30 40 39 36 37 44 45 44 39 25 17 43 46 48 49 52 49 47 42 30 58 75 76 62 61 49 44 39 32 24 13 8 8 13 13 11 8 2
7 14 12 19 21 28 40 39 38 38 45 52 47 39 30 46 23 28 45 40 49 48 44 48 42 70 75 79 67 59 41 39 32 25 18 13 6 8 11 13 11 6 3
9 10 15 19 18 24 32 41 41 40 45 47 45 39 33 53 44 46 40 50 39 35 35 58 62 73 62 72 67 63 40 34 25 19 17 12 10 12 13 13 11 4 5
7 16 18 22 19 24 31 36 39 43 42 41 42 49 48 60 47 58 45 49 47 40 46 46 61 61 67 68 62 58 41 27 26 26 19 11 8 12 15 16 9 6 8
5 10 27 27 25 24 29 33 37 40 39 44 39 42 41 48 69 43 53 49 44 43 39 58 58 63 65 79 61 56 40 34 30 23 14 10 12 17 17 14 9 9 10
13 13 26 31 30 29 30 33 36 36 38 38 38 37 41 46 54 53 59 65 50 45 40 46 45 50 67 69 60 52 41 34 26 17 12 13 15 15 15 13 12 11 13
14 14 22 30 33 30 31 32 32 31 36 40 38 35 40 39 58 45 53 62 66 47 45 41 45 51 72 51 55 46 35 27 19 14 13 14 14 16 15 14 14 15 17
15 17 22 28 33 35 33 34 31 33 43 39 38 36 35 41 48 44 42 52 52 54 30 49 39 60 49 66 50 40 27 19 18 13 13 13 16 13 13 14 16 21 23
15 19 21 28 33 35 37 40 36 38 43 35 34 34 37 37 44 38 42 47 39 47 41 48 43 50 63 72 59 42 27 18 11 15 15 15 12 13 15 18 22 25 30
16 16 23 23 31 35 38 37 37 37 40 44 34 32 36 40 40 42 43 44 42 37 34 56 46 52 53 58 49 41 30 20 20 18 16 14 13 17 19 22 27 32 37
24 19 21 24 28 35 38 38 36 41 43 31 25 31 39 45 41 39 39 35 33 33 43 47 45 40 44 46 46 42 34 29 24 17 17 15 16 17 23 27 32 34 39
25 22 25 22 27 29 33 32 40 51 39 27 25 35 51 46 46 47 40 48 38 42 44 38 33 30 35 39 34 34 33 26 19 17 16 16 17 21 24 27 31 35 38
23 25 19 24 23 25 22 31 43 51 37 40 36 44 50 44 51 47 45 48 43 42 38 31 29 32 34 36 31 29 28 17 13 14 13 10 17 20 25 32 37 36 44
18 20 17 19 15 16 33 28 31 48 46 37 40 48 39 50 50 42 42 39 37 36 32 29 27 34 33 25 19 15 15 13 12 8 15 20 28 32 33 38 37 40 48
16 13 21 29 16 17 20 41 41 36 34 36 41 58 49 51 45 36 25 19 30 30 15 18 21 22 17 15 13 8 5 3 9 18 27 31 34 40 41 38 39 40 39
10 14 23 23 22 29 34 33 32 31 45 44 53 62 59 49 37 23 23 23 24 27 22 13 10 14 11 6 2 5 8 17 20 28 29 36 31 24 28 36 30 30 39
14 19 21 22 26 31 31 30 30 34 43 58 61 51 50 34 29 30 30 21 26 20 20 16 12 7 3 7 7 14 22 25 22 26 28 25 22 29 28 24 34 47 41
17 21 25 21 19 26 30 30 32 37 44 59 52 40 37 37 36 32 33 28 29 26 24 18 11 9 16 19 21 26 24 20 14 10 15 22 28 32 20 21 34 41 46
Wind_Direction_500mb
276 288 301 284 282 271 252 236 225 215 212 209 207 200 194 201 201 201 197 198 195 194 192 187 192 200 202 193 187 173 166 167 171 171 161 161 160 156 151 150 145 136 128
275 274 289 282 275 281 244 232 222 207 206 205 204 188 190 194 192 198 199 200 196 194 194 194 192 197 201 184 184 168 166 170 172 168 163 162 162 154 147 151 140 130 123
268 270 275 276 274 272 246 223 210 202 202 204 191 188 192 189 203 201 202 199 194 193 194 183 186 190 190 192 176 168 164 175 172 164 164 163 158 154 155 145 143 125 116
269 269 273 274 272 270 236 207 199 199 201 202 192 195 200 200 204 204 200 194 192 174 185 180 188 191 188 180 175 163 167 171 169 163 162 158 157 159 155 142 128 125 127
259 261 265 263 273 261 199 196 197 199 193 194 195 201 194 202 205 203 196 194 190 182 178 183 188 186 187 179 166 163 167 172 163 161 158 157 156 154 148 149 140 138 126
247 246 248 245 247 209 180 187 190 186 186 184 196 190 196 196 205 201 192 190 192 187 178 186 181 187 193 172 164 162 168 164 163 158 157 154 157 162 158 148 144 132 122
231 230 227 223 214 194 185 183 184 181 183 189 179 186 174 189 197 193 198 193 187 190 184 186 185 187 173 166 163 165 170 162 164 153 153 155 154 165 161 152 137 141 138
190 206 225 197 194 185 185 186 189 186 188 187 178 169 159 167 185 193 194 194 190 193 194 196 191 181 176 168 162 167 166 164 158 157 159 147 168 182 163 152 159 158 139
188 199 183 184 184 186 187 187 189 194 184 178 182 164 153 169 173 181 189 192 190 194 196 193 177 186 169 168 162 161 158 157 160 157 153 159 193 189 170 169 172 175 147
231 187 184 186 185 186 191 191 192 184 177 172 185 180 172 175 156 149 169 178 181 194 183 188 182 177 166 169 166 161 154 160 161 157 151 186 200 187 181 186 190 192 310
223 203 186 197 177 183 182 186 192 185 183 188 189 185 185 170 163 151 146 167 170 181 197 188 184 174 168 161 166 160 167 161 165 155 186 195 205 188 189 197 207 239 300
216 207 180 185 175 181 179 182 187 187 187 192 183 190 185 167 172 161 155 165 172 176 190 180 166 166 175 166 169 170 169 170 171 185 195 208 202 191 197 212 225 272 292
169 171 171 179 170 169 178 176 183 183 188 193 190 190 193 182 178 170 165 164 166 176 168 175 176 179 181 172 166 172 175 178 185 187 200 214 199 207 207 221 248 270 281
139 140 167 170 168 169 170 173 181 183 186 189 193 201 184 187 163 196 190 171 161 171 163 172 187 187 173 171 174 170 174 178 183 188 215 212 218 215 219 238 254 271 286
113 126 153 172 172 179 176 174 176 183 185 184 196 195 194 187 191 193 193 183 174 166 177 158 166 179 176 180 167 167 171 174 179 207 221 227 222 218 236 261 276 288 300
119 133 145 153 162 167 173 174 175 183 176 184 192 193 190 197 194 196 193 183 181 177 159 181 179 178 189 177 168 168 164 180 196 217 228 237 228 239 267 280 294 297 296
118 132 143 152 152 157 169 174 173 176 180 181 189 189 187 187 185 188 186 182 178 182 169 177 187 177 183 180 184 192 199 210 237 246 243 235 244 266 284 296 295 299 305
109 127 136 143 151 157 166 173 166 170 179 172 168 174 175 175 185 182 187 184 177 177 180 160 165 170 175 182 194 201 210 232 248 246 233 238 261 279 284 289 303 310 309
116 120 140 142 142 159 162 167 171 159 150 153 174 184 174 162 162 161 170 169 158 171 164 162 163 174 184 194 200 206 220 239 232 221 231 250 269 276 295 303 309 318 320
102 112 132 151 155 162 175 171 178 167 155 138 128 155 155 156 154 149 146 160 154 141 152 157 169 172 177 179 195 215 218 214 216 233 251 274 290 304 311 318 317 319 324
99 90 133 134 150 163 166 175 172 177 163 138 125 150 152 150 157 146 137 144 150 153 161 171 178 175 176 188 197 199 203 211 238 268 289 319 320 316 318 317 316 318 310
98 89 112 143 127 142 183 171 156 160 159 145 141 154 147 147 143 132 133 147 154 159 168 178 188 190 188 191 195 200 205 228 272 308 308 312 310 316 305 295 289 288 289
105 99 98 130 129 125 131 179 187 184 178 162 153 156 158 161 147 132 131 151 146 153 129 123 155 154 152 158 181 175 157 290 327 300 297 298 294 297 304 301 301 302 308
103 117 119 126 124 127 116 127 139 157 170 174 167 163 153 151 153 143 147 152 144 147 160 166 143 127 118 126 240 279 278 279 276 278 282 287 291 300 307 316 312 314 320
142 145 139 128 120 124 132 131 134 131 145 152 164 172 174 163 163 158 156 151 160 166 168 157 157 170 131 229 273 281 268 261 256 260 272 286 299 319 325 325 326 336 342
161 156 161 154 141 131 129 138 145 149 149 159 155 155 164 165 163 163 169 173 176 176 186 184 177 221 245 248 243 243 245 248 250 270 291 318 319 332 340 332 337 337 332
Wind_Speed_850mb
30 27 29 24 26 27 29 29 31 38 43 35 33 37 34 30 38 36 34 36 34 43 46 40 48 59 64 61 70 64 57 50 48 43 39 37 34 29 25 18 14 11 8
36 31 28 24 25 25 29 29 29 39 41 35 34 40 33 27 41 37 34 38 35 46 49 41 45 49 54 69 67 63 57 50 47 43 39 36 31 25 20 15 12 7 7
31 29 28 26 24 24 29 33 27 38 38 33 40 40 31 31 36 35 35 38 36 42 47 43 42 51 60 66 68 61 58 52 46 44 40 35 28 22 18 14 8 9 13
35 33 27 25 22 24 29 36 30 37 45 37 45 40 28 41 32 35 41 41 37 44 44 52 44 49 59 67 66 64 55 53 48 44 36 32 25 20 15 9 9 14 16
35 35 30 20 19 17 27 35 33 34 42 40 39 30 38 39 38 39 43 43 43 44 43 41 45 53 62 74 78 63 57 48 46 41 34 28 22 15 9 8 15 16 16
26 28 23 20 18 17 30 37 33 34 34 36 35 40 40 39 44 44 45 49 45 43 43 44 45 52 64 82 74 64 54 49 45 39 32 26 18 12 8 13 15 15 15
23 25 18 17 22 23 31 35 36 36 35 31 35 35 36 39 39 39 46 51 46 43 45 51 51 51 72 63 71 64 53 46 40 36 29 22 13 7 10 14 15 14 11
16 16 11 16 24 28 33 37 39 41 39 37 51 44 31 27 31 33 45 44 51 49 44 53 59 70 72 67 65 62 53 48 42 37 28 18 9 7 12 14 15 12 7
12 12 11 14 23 30 40 39 36 37 44 45 44 39 25 17 43 46 48 49 52 49 47 42 30 58 75 76 62 61 49 44 39 32 24 13 8 8 13 13 11 8 2
7 14 12 19 21 28 40 39 38 38 45 52 47 39 30 46 23 28 45 40 49 48 44 48 42 70 75 79 67 59 41 39 32 25 18 13 6 8 11 13 11 6 3
9 10 15 19 18 24 32 41 41 40 45 47 45 39 33 53 44 46 40 50 39 35 35 58 62 73 62 72 67 63 40 34 25 19 17 12 10 12 13 13 11 4 5
7 16 18 22 19 24 31 36 39 43 42 41 42 49 48 60 47 58 45 49 47 40 46 46 61 61 67 68 62 58 41 27 26 26 19 11 8 12 15 16 9 6 8
5 10 27 27 25 24 29 33 37 40 39 44 39 42 41 48 69 43 53 49 44 43 39 58 58 63 65 79 61 56 40 34 30 23 14 10 12 17 17 14 9 9 10
13 13 26 31 30 29 30 33 36 36 38 38 38 37 41 46 54 53 59 65 50 45 40 46 45 50 67 69 60 52 41 34 26 17 12 13 15 15 15 13 12 11 13
14 14 22 30 33 30 31 32 32 31 36 40 38 35 40 39 58 45 53 62 66 47 45 41 45 51 72 51 55 46 35 27 19 14 13 14 14 16 15 14 14 15 17
15 17 22 28 33 35 33 34 31 33 43 39 38 36 35 41 48 44 42 52 52 54 30 49 39 60 49 66 50 40 27 19 18 13 13 13 16 13 13 14 16 21 23
15 19 21 28 33 35 37 40 36 38 43 35 34 34 37 37 44 38 42 47 39 47 41 48 43 50 63 72 59 42 27 18 11 15 15 15 12 13 15 18 22 25 30
16 16 23 23 31 35 38 37 37 37 40 44 34 32 36 40 40 42 43 44 42 37 34 56 46 52 53 58 49 41 30 20 20 18 16 14 13 17 19 22 27 32 37
24 19 21 24 28 35 38 38 36 41 43 31 25 31 39 45 41 39 39 35 33 33 43 47 45 40 44 46 46 42 34 29 24 17 17 15 16 17 23 27 32 34 39
25 22 25 22 27 29 33 32 40 51 39 27 25 35 51 46 46 47 40 48 38 42 44 38 33 30 35 39 34 34 33 26 19 17 16 16 17 21 24 27 31 35 38
23 25 19 24 23 25 22 31 43 51 37 40 36 44 50 44 51 47 45 48 43 42 38 31 29 32 34 36 31 29 28 17 13 14 13 10 17 20 25 32 37 36 44
18 20 17 19 15 16 33 28 31 48 46 37 40 48 39 50 50 42 42 39 37 36 32 29 27 34 33 25 19 15 15 13 12 8 15 20 28 32 33 38 37 40 48
16 13 21 29 16 17 20 41 41 36 34 36 41 58 49 51 45 36 25 19 30 30 15 18 21 22 17 15 13 8 5 3 9 18 27 31 34 40 41 38 39 40 39
10 14 23 23 22 29 34 33 32 31 45 44 53 62 59 49 37 23 23 23 24 27 22 13 10 14 11 6 2 5 8 17 20 28 29 36 31 24 28 36 30 30 39
14 19 21 22 26 31 31 30 30 34 43 58 61 51 50 34 29 30 30 21 26 20 20 16 12 7 3 7 7 14 22 25 22 26 28 25 22 29 28 24 34 47 41
17 21 25 21 19 26 30 30 32 37 44 59 52 40 37 37 36 32 33 28 29 26 24 18 11 9 16 19 21 26 24 20 14 10 15 22 28 32 20 21 34 41 46
Wind_Direction_850mb
276 288 301 284 282 271 252 236 225 215 212 209 207 200 194 201 201 201 197 198 195 194 192 187 192 200 202 193 187 173 166 167 171 171 161 161 160 156 151 150 145 136 128
275 274 289 282 275 281 244 232 222 207 206 205 204 188 190 194 192 198 199 200 196 194 194 194 192 197 201 184 184 168 166 170 172 168 163 162 162 154 147 151 140 130 123
268 270 275 276 274 272 246 223 210 202 202 204 191 188 192 189 203 201 202 199 194 193 194 183 186 190 190 192 176 168 164 175 172 164 164 163 158 154 155 145 143 125 116
269 269 273 274 272 270 236 207 199 199 201 202 192 195 200 200 204 204 200 194 192 174 185 180 188 191 188 180 175 163 167 171 169 163 162 158 157 159 155 142 128 125 127
259 261 265 263 273 261 199 196 197 199 193 194 195 201 194 202 205 203 196 194 190 182 178 183 188 186 187 179 166 163 167 172 163 161 158 157 156 154 148 149 140 138 126
247 246 248 245 247 209 180 187 190 186 186 184 196 190 196 196 205 201 192 190 192 187 178 186 181 187 193 172 164 162 168 164 163 158 157 154 157 162 158 148 144 132 122
231 230 227 223 214 194 185 183 184 181 183 189 179 186 174 189 197 193 198 193 187 190 184 186 185 187 173 166 163 165 170 162 164 153 153 155 154 165 161 152 137 141 138
190 206 225 197 194 185 185 186 189 186 188 187 178 169 159 167 185 193 194 194 190 193 194 196 191 181 176 168 162 167 166 164 158 157 159 147 168 182 163 152 159 158 139
188 199 183 184 184 186 187 187 189 194 184 178 182 164 153 169 173 181 189 192 190 194 196 193 177 186 169 168 162 161 158 157 160 157 153 159 193 189 170 169 172 175 147
231 187 184 186 185 186 191 191 192 184 177 172 185 180 172 175 156 149 169 178 181 194 183 188 182 177 166 169 166 161 154 160 161 157 151 186 200 187 181 186 190 192 310
223 203 186 197 177 183 182 186 192 185 183 188 189 185 185 170 163 151 146 167 170 181 197 188 184 174 168 161 166 160 167 161 165 155 186 195 205 188 189 197 207 239 300
216 207 180 185 175 181 179 182 187 187 187 192 183 190 185 167 172 161 155 165 172 176 190 180 166 166 175 166 169 170 169 170 171 185 195 208 202 191 197 212 225 272 292
169 171 171 179 170 169 178 176 183 183 188 193 190 190 193 182 178 170 165 164 166 176 168 175 176 179 181 172 166 172 175 178 185 187 200 214 199 207 207 221 248 270 281
139 140 167 170 168 169 170 173 181 183 186 189 193 201 184 187 163 196 190 171 161 171 163 172 187 187 173 171 174 170 174 178 183 188 215 212 218 215 219 238 254 271 286
113 126 153 172 172 179 176 174 176 183 185 184 196 195 194 187 191 193 193 183 174 166 177 158 166 179 176 180 167 167 171 174 179 207 221 227 222 218 236 261 276 288 300
119 133 145 153 162 167 173 174 175 183 176 184 192 193 190 197 194 196 193 183 181 177 159 181 179 178 189 177 168 168 164 180 196 217 228 237 228 239 267 280 294 297 296
118 132 143 152 152 157 169 174 173 176 180 181 189 189 187 187 185 188 186 182 178 182 169 177 187 177 183 180 184 192 199 210 237 246 243 235 244 266 284 296 295 299 305
109 127 136 143 151 157 166 173 166 170 179 172 168 174 175 175 185 182 187 184 177 177 180 160 165 170 175 182 194 201 210 232 248 246 233 238 261 279 284 289 303 310 309
116 120 140 142 142 159 162 167 171 159 150 153 174 184 174 162 162 161 170 169 158 171 164 162 163 174 184 194 200 206 220 239 232 221 231 250 269 276 295 303 309 318 320
102 112 132 151 155 162 175 171 178 167 155 138 128 155 155 156 154 149 146 160 154 141 152 157 169 172 177 179 195 215 218 214 216 233 251 274 290 304 311 318 317 319 324
99 90 133 134 150 163 166 175 172 177 163 138 125 150 152 150 157 146 137 144 150 153 161 171 178 175 176 188 197 199 203 211 238 268 289 319 320 316 318 317 316 318 310
98 89 112 143 127 142 183 171 156 160 159 145 141 154 147 147 143 132 133 147 154 159 168 178 188 190 188 191 195 200 205 228 272 308 308 312 310 316 305 295 289 288 289
105 99 98 130 129 125 131 179 187 184 178 162 153 156 158 161 147 132 131 151 146 153 129 123 155 154 152 158 181 175 157 290 327 300 297 298 294 297 304 301 301 302 308
103 117 119 126 124 127 116 127 139 157 170 174 167 163 153 151 153 143 147 152 144 147 160 166 143 127 118 126 240 279 278 279 276 278 282 287 291 300 307 316 312 314 320
142 145 139 128 120 124 132 131 134 131 145 152 164 172 174 163 163 158 156 151 160 166 168 157 157 170 131 229 273 281 268 261 256 260 272 286 299 319 325 325 326 336 342
161 156 161 154 141 131 129 138 145 149 149 159 155 155 164 165 163 163 169 173 176 176 186 184 177 221 245 248 243 243 245 248 250 270 291 318 319 332 340 332 337 337 332